Weather History for Brunswick, GA

Change the Weather History Date:

Thursday, January 5, 2012

  Actual Average Record
Temperature  
Mean Temperature 50 °F -  
Max Temperature 64 °F 62 °F 80 °F (2004)
Min Temperature 37 °F 41 °F 19 °F (2002)
Degree Days  
Heating Degree Days 14    
Moisture  
Dew Point 34 °F    
Average Humidity 58    
Maximum Humidity 87    
Minimum Humidity 32    
Precipitation  
Precipitation 0.00 in - - ()
Sea Level Pressure  
Sea Level Pressure 30.21 in    
Wind  
Wind Speed 9 mph (West)    
Max Wind Speed 15 mph    
Max Gust Speed 23 mph    
Visibility 10 miles    
Events      
Averages and records for this station are not official NWS values.
T = Trace of Precipitation, MM = Missing Value Source: NWS Daily Summary

Daily Weather History Graph

Daily Weather History Graph

Search for Another Location

Airport:

Trip Planner

Search our weather history database for the weather conditions in past years. The results will help you decide how hot, cold, wet, or windy it might be!

Date:

Astronomy

Jan. 05, 2012 Rise Set
Actual Time 7:25 AM EST 5:37 PM EST
Civil Twilight 6:58 AM EST 6:03 PM EST
Nautical Twilight 6:28 AM EST 6:33 PM EST
Astronomical Twilight 5:59 AM EST 7:03 PM EST
Moon 2:40 PM EST (1/5) 4:09 AM EST (1/5)
Length of Visible Light 11h 04m
Length of Day
10h 11m
Waxing Gibbous, 87% of the Moon is Illuminated
Jan 5
Waxing Gibbous
Jan 9
Full
Jan 16
Last Quarter
Jan 23
New
Jan 30
First Quarter

Hourly Weather History & Observations

Time (EST) Temp. Windchill Dew Point Humidity Pressure Visibility Wind Dir Wind Speed Gust Speed Precip Events Conditions
12:15 AM 39.2 °F 33.0 °F 21.2 °F 49% 30.30 in 10.0 mi WSW 9.2 mph - N/A   Scattered Clouds
12:35 AM 41.0 °F 35.2 °F 21.2 °F 45% 30.29 in 10.0 mi WSW 9.2 mph - N/A   Scattered Clouds
12:55 AM 41.0 °F 34.7 °F 21.2 °F 45% 30.29 in 10.0 mi WSW 10.4 mph - N/A   Mostly Cloudy
1:15 AM 39.2 °F 33.0 °F 23.0 °F 52% 30.28 in 10.0 mi West 9.2 mph - N/A   Scattered Clouds
1:35 AM 39.2 °F 32.5 °F 24.8 °F 56% 30.28 in 10.0 mi WSW 10.4 mph - N/A   Clear
1:55 AM 37.4 °F 30.3 °F 26.6 °F 65% 30.27 in 10.0 mi WSW 10.4 mph - N/A   Clear
2:15 AM 37.4 °F 31.4 °F 26.6 °F 65% 30.26 in 10.0 mi West 8.1 mph - N/A   Clear
2:35 AM 37.4 °F 30.8 °F 28.4 °F 70% 30.26 in 10.0 mi WSW 9.2 mph - N/A   Clear
2:55 AM 37.4 °F 31.4 °F 28.4 °F 70% 30.25 in 10.0 mi WSW 8.1 mph - N/A   Clear
3:15 AM 39.2 °F 34.2 °F 28.4 °F 65% 30.24 in 10.0 mi WSW 6.9 mph - N/A   Clear
3:35 AM 39.2 °F 33.6 °F 28.4 °F 65% 30.24 in 10.0 mi West 8.1 mph - N/A   Clear
3:55 AM 39.2 °F 34.2 °F 30.2 °F 70% 30.23 in 10.0 mi WSW 6.9 mph - N/A   Clear
4:15 AM 39.2 °F 33.6 °F 30.2 °F 70% 30.23 in 10.0 mi WSW 8.1 mph - N/A   Clear
4:35 AM 39.2 °F 34.2 °F 30.2 °F 70% 30.23 in 10.0 mi WSW 6.9 mph - N/A   Clear
4:55 AM 39.2 °F 34.2 °F 32.0 °F 75% 30.23 in 10.0 mi WSW 6.9 mph - N/A   Clear
5:15 AM 39.2 °F 33.6 °F 32.0 °F 75% 30.23 in 10.0 mi WSW 8.1 mph - N/A   Clear
5:35 AM 39.2 °F 34.2 °F 32.0 °F 75% 30.23 in 10.0 mi WSW 6.9 mph - N/A   Clear
5:55 AM 39.2 °F 34.2 °F 32.0 °F 75% 30.23 in 10.0 mi West 6.9 mph - N/A   Clear
6:15 AM 37.4 °F 32.1 °F 33.8 °F 87% 30.23 in 10.0 mi WSW 6.9 mph - N/A   Clear
6:35 AM 37.4 °F 31.4 °F 33.8 °F 87% 30.23 in 10.0 mi WSW 8.1 mph - N/A   Clear
6:55 AM 37.4 °F 32.1 °F 33.8 °F 87% 30.23 in 10.0 mi WSW 6.9 mph - N/A   Clear
7:15 AM 39.2 °F 34.2 °F 35.6 °F 87% 30.23 in 10.0 mi WSW 6.9 mph - N/A   Clear
7:35 AM 39.2 °F 34.2 °F 35.6 °F 87% 30.23 in 10.0 mi WSW 6.9 mph - N/A   Clear
7:55 AM 41.0 °F 36.4 °F 35.6 °F 81% 30.23 in 10.0 mi WSW 6.9 mph - N/A   Clear
8:15 AM 42.8 °F 38.0 °F 37.4 °F 81% 30.24 in 10.0 mi WSW 8.1 mph - N/A   Clear
8:35 AM 42.8 °F 38.0 °F 37.4 °F 81% 30.24 in 10.0 mi WSW 8.1 mph - N/A   Clear
8:55 AM 44.6 °F 39.2 °F 37.4 °F 76% 30.25 in 10.0 mi WSW 10.4 mph - N/A   Clear
9:15 AM 46.4 °F 41.5 °F 39.2 °F 76% 30.25 in 10.0 mi West 10.4 mph 17.3 mph N/A   Clear
9:35 AM 48.2 °F - 39.2 °F 71% 30.25 in 10.0 mi West 9.2 mph 18.4 mph N/A   Clear
9:55 AM 50.0 °F - 41.0 °F 71% 30.26 in 10.0 mi WNW 11.5 mph 16.1 mph N/A   Clear
10:15 AM 51.8 °F - 41.0 °F 67% 30.26 in 10.0 mi West 12.7 mph - N/A   Clear
10:35 AM 53.6 °F - 41.0 °F 62% 30.25 in 10.0 mi WSW 8.1 mph - N/A   Clear
10:55 AM 55.4 °F - 41.0 °F 58% 30.24 in 10.0 mi West 11.5 mph - N/A   Clear
11:15 AM 57.2 °F - 42.8 °F 59% 30.24 in 10.0 mi West 10.4 mph - N/A   Clear
11:35 AM 59.0 °F - 42.8 °F 55% 30.23 in 10.0 mi West 12.7 mph 18.4 mph N/A   Clear
11:55 AM 60.8 °F - 42.8 °F 52% 30.21 in 10.0 mi West 9.2 mph - N/A   Clear
12:15 PM 60.8 °F - 42.8 °F 52% 30.19 in 10.0 mi West 13.8 mph 18.4 mph N/A   Clear
12:35 PM 62.6 °F - 41.0 °F 45% 30.18 in 10.0 mi West 12.7 mph 19.6 mph N/A   Clear
12:55 PM 62.6 °F - 41.0 °F 45% 30.17 in 10.0 mi West 12.7 mph 21.9 mph N/A   Clear
1:15 PM 64.4 °F - 37.4 °F 37% 30.16 in 10.0 mi West 9.2 mph 20.7 mph N/A   Clear
1:35 PM 64.4 °F - 35.6 °F 34% 30.15 in 10.0 mi West 15.0 mph 21.9 mph N/A   Clear
1:55 PM 64.4 °F - 37.4 °F 37% 30.15 in 10.0 mi West 12.7 mph - N/A   Clear
2:15 PM 64.4 °F - 37.4 °F 37% 30.14 in 10.0 mi West 13.8 mph 19.6 mph N/A   Clear
2:35 PM 64.4 °F - 35.6 °F 34% 30.13 in 10.0 mi West 15.0 mph 23.0 mph N/A   Clear
2:55 PM 64.4 °F - 35.6 °F 34% 30.13 in 10.0 mi West 13.8 mph 17.3 mph N/A   Clear
3:15 PM 64.4 °F - 35.6 °F 34% 30.13 in 10.0 mi WNW 11.5 mph 17.3 mph N/A   Clear
3:35 PM 64.4 °F - 35.6 °F 34% 30.13 in 10.0 mi West 11.5 mph 17.3 mph N/A   Clear
3:55 PM 64.4 °F - 35.6 °F 34% 30.13 in 10.0 mi West 10.4 mph 17.3 mph N/A   Clear
4:15 PM 64.4 °F - 33.8 °F 32% 30.13 in 10.0 mi West 11.5 mph 20.7 mph N/A   Clear
4:35 PM 64.4 °F - 35.6 °F 34% 30.13 in 10.0 mi West 10.4 mph 16.1 mph N/A   Clear
4:55 PM 62.6 °F - 35.6 °F 37% 30.13 in 10.0 mi West 9.2 mph - N/A   Clear
5:15 PM 62.6 °F - 35.6 °F 37% 30.13 in 10.0 mi West 8.1 mph - N/A   Clear
5:35 PM 60.8 °F - 35.6 °F 39% 30.14 in 10.0 mi West 6.9 mph - N/A   Clear
5:55 PM 59.0 °F - 35.6 °F 42% 30.14 in 10.0 mi West 3.5 mph - N/A   Clear
6:15 PM 55.4 °F - 35.6 °F 47% 30.15 in 10.0 mi West 4.6 mph - N/A   Clear
6:35 PM 53.6 °F - 35.6 °F 51% 30.16 in 10.0 mi West 3.5 mph - N/A   Clear
6:55 PM 51.8 °F - 37.4 °F 58% 30.16 in 10.0 mi WSW 4.6 mph - N/A   Clear
7:15 PM 50.0 °F - 37.4 °F 62% 30.16 in 10.0 mi West 3.5 mph - N/A   Clear
7:35 PM 50.0 °F - 37.4 °F 62% 30.16 in 10.0 mi West 3.5 mph - N/A   Clear
7:55 PM 46.4 °F - 37.4 °F 71% 30.17 in 10.0 mi Calm Calm - N/A   Clear
8:15 PM 46.4 °F - 35.6 °F 66% 30.17 in 10.0 mi Calm Calm - N/A   Clear
8:35 PM 44.6 °F - 35.6 °F 71% 30.18 in 10.0 mi Calm Calm - N/A   Clear
8:55 PM 42.8 °F - 35.6 °F 76% 30.18 in 10.0 mi Calm Calm - N/A   Clear
9:15 PM 42.8 °F - 35.6 °F 76% 30.19 in 10.0 mi Calm Calm - N/A   Clear
9:35 PM 42.8 °F - 35.6 °F 76% 30.18 in 10.0 mi Calm Calm - N/A   Clear
9:55 PM 41.0 °F - 35.6 °F 81% 30.18 in 10.0 mi Calm Calm - N/A   Clear
10:15 PM 42.8 °F - 35.6 °F 76% 30.19 in 10.0 mi Calm Calm - N/A   Clear
10:35 PM 41.0 °F - 35.6 °F 81% 30.19 in 10.0 mi Calm Calm - N/A   Clear
10:55 PM 41.0 °F - 35.6 °F 81% 30.19 in 10.0 mi Calm Calm - N/A   Clear
11:15 PM 41.0 °F - 35.6 °F 81% 30.19 in 10.0 mi Calm Calm - N/A   Clear
11:35 PM 41.0 °F - 35.6 °F 81% 30.19 in 10.0 mi Calm Calm - N/A   Clear
11:55 PM 39.2 °F - 35.6 °F 87% 30.19 in 10.0 mi Calm Calm - N/A   Clear